{"data":{"norad_id":65146,"epoch":"2026-09-21T19:33:47.517120Z","epoch_age_seconds":51467,"freshness":"FRESH","line1":"1 65146U 25171Q   26264.81513330  .00000777  00000+0  13089-3 0  9996","line2":"2 65146  51.9018  13.3816 0000455  70.3194 289.7817 14.79929340 61904","mean_motion":14.7992934,"eccentricity":4.55e-5,"inclination_deg":51.9018,"raan_deg":13.3816,"arg_perigee_deg":70.3194,"mean_anomaly_deg":289.7817,"bstar":0.00013089,"rev_number":6190,"period_min":97.301942807621,"perigee_km":629.22833328153,"apogee_km":629.86603254218,"semimajor_km":7007.6841829119,"source":"CELESTRAK","updated_at":"2026-09-22T09:00:30.155458Z"}}